www.pogodaiklimat.ru

Погода и климат >> Архив погоды >> Россия >> город Москва >> Москва (Балчуг)


ПОГОДА в Москве (Балчуг)

  • Прогноз погоды в Москве (Балчуг)
  • Монитор погоды в Москве (Балчуг)

АРХИВ ПОГОДЫ в Москве (Балчуг)

Время (UTC), дата Ветер
(напр.,м/с)
 
Видим.   Явления Облачность Т
(С)
Тd
(С)
f
(%)
Тe
(С)
Тes
(С)
Комфортность P
(гПа)
Po
(гПа)
Тmin
(С)
Tmax
(С)
R
(мм)
R24
(мм)
S
(см)
06 13.06 СВ 2 10 км ясно +13.8 +1.0 42 +14 +23 1028.2 1013.1 +10.4
09 13.06 В 2 10 км ясно +17.1 0.0 31 +18 +33 опасность
простуды
1028.1 1013.2
12 13.06 СВ 1 10 км 9/0
[Ci fib]
+20.7 -0.6 24 +22 +33 комфорт 1026.6 1011.9
15 13.06 СВ 1 10 км 6/0
[Ci fib]
+21.1 -0.9 23 +21 +24 комфорт 1025.2 1010.5
18 13.06 штиль 0 10 км 6/0
[Ci fib]
+18.4 -0.1 29 +18 +18 1024.3 1009.5 +21.5
21 13.06 штиль 0 10 км 9/0
[Ac trans]
+17.0 +0.9 34 +17 +17 1025.5 1010.7
00 14.06 штиль 0 10 км 8/0
[Ci fib]
+14.9 +2.3 43 +15 +15 1024.4 1009.5
03 14.06 штиль 0 10 км ясно +16.9 +2.3 37 +17 +19 1022.7 1007.9 +14.5
06 14.06 ЮЗ 1 10 км 9/0
[Ac cast Cc]
+19.7 +4.1 36 +21 +27 комфорт 1021.5 1006.9 +14.5
09 14.06 ЮЗ 1 10 км {ливн. осадки} 9/9 1000 м
[Sc diur, vesp]
+20.8 +10.4 51 +24 +25 комфорт 1018.5 1003.9
12 14.06 ЮЗ 1 10 км слаб. ливневой дождь, в посл. час гроза 10/10 600 м
[Sc diur, vesp]
+17.2 +14.9 86 +18 +18 1016.5 1001.8
15 14.06 З 2 10 км 10/10 600 м
[Cu med, cong]
+21.8 +16.5 72 +26 +26 душно 1014.0 999.6 9
18 14.06 СЗ 1 10 км 10/10 1000 м
[Sc diur, vesp]
+20.4 +15.7 74 +24 +24 комфорт 1013.9 999.4 +22.4 9
21 14.06 СВ 2 10 км 10/10 600 м
[Sc]
+16.6 +13.8 84 +17 +17 1015.1 1000.4
00 15.06 СВ 1 10 км 10/10 600 м
[Sc]
+14.6 +11.6 82 +15 +15 1015.4 1000.6
03 15.06 штиль 0 10 км 10/10 600 м
[Sc]
+14.4 +10.8 79 +14 +14 1015.6 1000.8 +13.9
06 15.06 СВ 1 10 км 10/10 600 м
[Sc]
+15.4 +10.5 73 +16 +16 1015.7 1000.9 +13.9
09 15.06 СВ 1 10 км 10/10 600 м
[Sc]
+18.1 +11.1 64 +19 +19 1015.2 1000.5
12 15.06 ЮВ 1 10 км 10/10 600 м
[Sc]
+20.6 +12.6 60 +24 +24 комфорт 1014.2 999.7
15 15.06 З 1 10 км {ливн. осадки} 9/9 1000 м
[Sc diur, vesp]
+19.9 +13.5 67 +23 +23 комфорт 1014.1 999.5 0.8
18 15.06 штиль 0 10 км {ливн. осадки} 6/6 1000 м
[Sc diur, vesp]
+18.7 +12.7 68 +19 +19 1014.0 999.4 +20.7 0.8
21 15.06 штиль 0 10 км ясно +17.3 +12.8 75 +17 +17 1013.8 999.2
00 16.06 штиль 0 10 км 6/6 1000 м
[Sc]
+16.2 +13.3 83 +16 +16 1013.5 998.8
03 16.06 З 1 10 км 9/3 1000 м
[Sc Ac und]
+16.7 +13.8 83 +18 +18 1013.5 998.8 +16.0
06 16.06 СЗ 1 10 км 10/10 600 м
[Sc]
+16.7 +12.8 78 +18 +18 1014.7 1000.0 +16.0
09 16.06 З 2 10 км 10/10 600 м
[Cb calv]
+18.8 +11.7 63 +20 +20 1015.0 1000.4
12 16.06 С 2 10 км 8/8 1000 м
[Cu med, cong]
+20.9 +9.1 47 +23 +26 комфорт 1014.7 1000.2
15 16.06 З 2 10 км 5/5 1000 м
[Cu hum]
+21.9 +8.0 41 +23 +25 комфорт 1014.1 999.7
18 16.06 З 1 10 км 1/1 1000 м
[Sc diur, vesp]
+20.7 +8.7 46 +23 +23 комфорт 1014.7 1000.2 +23.0
21 16.06 З 1 10 км ясно +18.8 +10.1 57 +21 +21 комфорт 1015.0 1000.4
00 17.06 штиль 0 10 км ясно +16.6 +11.2 70 +17 +17 1015.0 1000.3
03 17.06 штиль 0 10 км ясно +18.6 +11.8 65 +19 +21 1015.6 1001.0 +15.6
06 17.06 З 2 10 км 5/0
[Ac trans]
+21.8 +11.8 53 +24 +30 комфорт 1015.1 1000.7 +15.6
09 17.06 З 2 10 км 5/5 1000 м
[Cu med, cong]
+24.6 +8.4 36 +25 +33 комфорт 1014.3 1000.0
12 17.06 З 2 10 км 6/6 1000 м
[Cu med, cong]
+27.2 +7.9 30 +27 +32 жарко 1013.1 998.9
15 17.06 З 2 10 км 6/6 1000 м
[Cu med, cong]
+26.8 +8.2 31 +27 +28 жарко 1012.3 998.1
18 17.06 З 2 10 км 8/0
[Cc]
+23.4 +11.7 48 +26 +26 жарко 1012.9 998.5 +27.9
21 17.06 З 1 10 км 10/0
[As op]
+22.3 +13.2 56 +25 +25 комфорт 1012.7 998.3
00 18.06 З 1 10 км 10/0
[As op]
+21.1 +14.2 65 +24 +24 комфорт 1012.6 998.1
03 18.06 штиль 0 10 км 10/0
[As op]
+19.6 +15.6 78 +21 +22 комфорт 1012.9 998.4 +19.5
06 18.06 З 2 10 км 9/6 1000 м
[Sc Ac As]
+21.9 +14.4 62 +25 +27 комфорт 1013.1 998.7 +19.5
09 18.06 З 3 10 км 6/6 1000 м
[Cu med, cong]
+24.7 +10.3 40 +26 +31 жарко 1013.0 998.7
12 18.06 З 2 10 км 9/9 1000 м
[Cu Sc]
+26.0 +9.2 35 +26 +28 жарко 1012.0 997.8
15 18.06 З 3 10 км 4/4 1000 м
[Cu med, cong]
+26.4 +10.8 38 +27 +29 жарко 1011.5 997.4
18 18.06 З 2 10 км 4/4 1000 м
[Cu med, cong]
+24.7 +11.7 44 +26 +26 жарко 1012.7 998.4 +27.6
21 18.06 З 2 10 км ясно +22.6 +8.7 41 +24 +24 комфорт 1014.0 999.6
00 19.06 З 1 10 км ясно +20.1 +8.6 47 +22 +22 комфорт 1015.0 1000.5
03 19.06 СЗ 1 10 км ясно +20.2 +9.7 51 +23 +24 комфорт 1015.8 1001.2 +19.1
06 19.06 З 2 10 км ясно +24.5 +8.6 36 +25 +34 комфорт 1015.9 1001.6 +19.1
09 19.06 СЗ 2 10 км 5/5 1000 м
[Cu hum]
+26.3 +6.9 29 +26 +34 жарко 1016.1 1001.9
12 19.06 С 1 10 км 5/5 1000 м
[Cu hum]
+27.1 +7.2 28 +27 +34 жарко 1015.7 1001.5
15 19.06 С 1 10 км 1/1 1000 м
[Cu hum]
+27.9 +6.7 26 +27 +31 жарко 1015.1 1000.9
18 19.06 З 1 10 км 1/1 1000 м
[Sc diur, vesp]
+25.7 +8.1 33 +26 +26 жарко 1015.2 1000.9 +28.7
21 19.06 З 1 10 км ясно +23.5 +10.2 43 +25 +25 комфорт 1016.1 1001.7
00 20.06 штиль 0 10 км 6/6 1000 м
[Sc]
+20.9 +11.3 54 +23 +23 комфорт 1016.8 1002.3
03 20.06 З 1 10 км 9/0
[Cc]
+22.3 +11.6 51 +25 +26 комфорт 1017.4 1003.0 +20.3

 

Местоположение метеостанции Москва (Балчуг) (город Москва, Россия): широта 55.75 долгота 37.63 высота над уровнем моря 125 м.

В архиве по умолчанию представлена погода в Москве (Балчуг) за последнюю неделю. Архивные данные за месяц целиком и за предыдущие месяцы, начиная с января 2011 года, Вы можете получить, выбрав интересующий диапазон дат из раскрывающегося списка и нажав кнопку "Ввод!".


*Определитесь, кто Вы:
робот инопланетянин человек

Внимание! Время в таблицах - всемирное. Для получения местного времени необходимо прибавить поправку, которая равна 3 ч.

Смотрите также архив погоды в соседних городах и на ближайших метеорологических станциях:

Погода в Москве (город Москва, Россия) (9 км)
Погода в Москве (Строгино) (город Москва, Россия) (15 км)
Погода в Немчиновке (город Москва, Россия) (17 км)
Погода в Москве (Тушино) (город Москва, Россия) (17 км)
Погода в Красногорске (Московская область, Россия) (19 км)
Погода в Москве (Бутово) (город Москва, Россия) (21 км)
Погода в Долгопрудном (Московская область, Россия) (21 км)
Погода в Железнодорожном АМС (Московская область, Россия) (21 км)
Погода в Люберцах (Московская область, Россия) (24 км)
Погода в Внуково (Московская область, Россия) (27 км)

Пояснения к столбцам:

Ветер - указаны скорость ветра в м/с - средняя за 10 мин, порывы в срок и между сроками (в фигурных скобках) и направление, откуда дует ветер: С - северный, СВ - северо-восточный, В - восточный, ЮВ - юго-восточный, Ю - южный, ЮЗ - юго-западный, З - западный, СЗ - северо-западный.
Видимость - горизонтальная дальность видимости в метрах или километрах. При видимости от 1 до 10 км при отсутствии осадков обычно наблюдается дымка, при ухудшении видимости до 1 км и менее - туман. В сухую погоду видимость может ухудшаться дымом, пылью или мглою.
Явления - указаны атмосферные явления, наблюдавшиеся в срок или в последний час перед сроком; фигурными скобками обозначены явления, наблюдавшиеся между сроками (за 1-3 часа до срока); квадратными скобками обозначены град или гололедные отложения с указанием их диаметра в мм.
Облачность - указаны через наклонную черту общая и нижняя облачность в баллах и высота нижней границы облаков в метрах; квадратными скобками обозначены формы облаков: Ci - перистые, Cs - перисто-слоистые, Cc - перисто-кучевые, Ac - высококучевые, As - высокослоистые, Sc - слоисто-кучевые, Ns - слоисто-дождевые, Cu - кучевые, Cb - кучево-дождевые. Подробнее классификацию облаков см. в Атласе облаков (PDF).
T - Температура воздуха - температура, измеренная на высоте 2 м над землей.
Td - Температура точки росы - температура, при понижении до которой содержащийся в воздухе водяной пар достигнет насыщения.
f - Относительная влажность воздуха - влажноcть воздуха, измеренная на высоте 2 м над землей.
Te - Эффективная температура - температура, которую ощущает одетый по сезону человек в тени. Характеристика душности погоды. При расчете учитывается влияние влажности воздуха и скорости ветра на теплоощущения человека.
Tes - Эффективная температура на солнце - температура, которую ощущает человек, с поправкой на солнечный нагрев. Характеристика знойности погоды. Зависит от высоты солнца над горизонтом, облачности и скорости ветра. Ночью, в пасмурную погоду, а также при ветре 12 м/с и более поправка равна нулю.
P - Атмосферное давление - приведенное к уровню моря атмосферное давление.
Po - Атмосферное давление - измеренное на уровне метеостанции атмосферное давление.
Tmin - Минимальная температура - минимум температуры воздуха на высоте 2 м над землей.
Tmax - Максимальная температура - максимум температуры воздуха на высоте 2 м над землей.
R - Количество осадков - Количество выпавших осадков за период времени, мм. При наведении курсора мыши на число - период времени, за который выпало указанное количество осадков.
R24 - Количество осадков - Количество выпавших осадков за 24 часа, мм.
S - Снежный покров - Высота снежного покрова, см. При наведении курсора мыши на число - состояние снежного покрова и степень покрытия местности в баллах.